Find DMSP F-17

NORAD ID: 29522 Int'l Des: 2006-050 Owner: AFSMC Country: US operational
LEOCIRCULARRETROGRADESSO

Live Position

Loading 3D Globe...

About DMSP F-17

Description loading...

Upcoming Passes

Passes for default location (London). Set your location on the main map for personalized predictions.

Altitude History

Loading altitude history...

Two-Line Element Set

1 29522U 06050A 26106.93338476 .00000054 00000-0 50317-4 0 9998
2 29522 98.7402 114.7531 0009184 226.4372 133.6040 14.14980419 3766
Epoch: Apr 16, 2026 • Age: 13 hours

Current Status

Altitude 864.4 km
Velocity 7.42 km/s
Sub-Earth Point -63.54°S, 112.49°E
Launch Date Nov 4, 2006
Age 19.4 years
Type other

Technical Details

Classification Payload
Mass 1217.00 kg
Dry Mass 1217.00 kg
Total Mass 1217.00 kg
Length 4.40 m
Diameter 1.20 m
Span 6.60 m
Shape Box + Pan
Manufacturer LMEW
Bus Type Block 5D
Phase Status In Orbit
Owner/State AFSMC/US

Most Searched